Dewpoint
-1 -0 -0 0 0 0 -0 0 1 1 1 1 -0 -1 -2 -3 -4 -5 -5 -6 -7 -4 -4 -3 -6 -9 -7 -2 -6 -5 -6 -6 -5 -5 -8 -9 -10 -12 -13 -14 -14 -13 -13 -14 -15 -14 -14
1 0 1 1 1 0 0 1 1 1 1 0 -0 -1 -2 -3 -4 -5 -6 -7 -5 -5 -2 -3 -7 -9 -4 -4 -5 -6 -6 -6 -6 -7 -9 -10 -10 -11 -12 -13 -12 -11 -10 -9 -9 -9 -9
1 1 2 1 0 0 0 1 1 0 -1 -1 -1 -2 -2 -3 -5 -5 -7 -5 -5 -2 -3 -4 -6 -7 0 -5 -6 -7 -7 -7 -7 -5 -7 -7 -9 -10 -10 -7 -8 -9 -8 -8 -8 -7 -7
1 2 2 1 1 0 0 1 1 -1 -2 -3 -4 -4 -5 -5 -5 -7 -5 -5 -3 -2 -2 -4 -7 -6 -3 -5 -6 -8 -9 -8 -7 -5 -5 -6 -7 -6 -8 -7 -9 -8 -8 -6 -7 -7 -6
2 2 2 1 1 0 0 1 0 0 -1 -2 -4 -5 -4 -5 -7 -6 -6 -4 -3 -2 -2 -4 -4 -2 -6 -7 -7 -7 -8 -8 -6 -4 -8 -9 -6 -8 -6 -7 -8 -8 -7 -10 -6 -7 -7
3 2 2 1 0 -0 0 1 1 -0 -1 -1 -1 -2 -3 -6 -6 -6 -5 -3 -2 -2 -3 -4 -2 -3 -8 -7 -7 -8 -7 -5 -5 -5 -6 -6 -7 -7 -11 -10 -6 -8 -11 -11 -10 -7 -9
3 3 2 1 0 -0 0 1 1 0 0 -0 -1 -2 -3 -4 -5 -6 -3 -3 -2 -2 -3 -4 -6 -6 -7 -7 -8 -6 -6 -6 -6 -6 -6 -7 -7 -5 -5 -7 -8 -9 -9 -8 -8 -6 -5
3 3 2 1 0 -1 -0 0 0 0 0 -0 -1 -1 -3 -4 -5 -3 -3 2 3 -3 -5 -5 -5 -4 -4 -5 -7 -6 -6 -6 -7 -7 -8 -9 -5 -6 -6 -5 -6 -6 -6 -6 -6 -5 -3
2 3 2 1 0 -1 -1 -0 -0 -0 -1 -1 2 2 -1 -3 -4 -3 4 2 -5 -3 -5 -5 -4 -5 -5 -5 -4 -4 -5 -8 -9 -10 -10 -5 -5 -6 -5 -4 -3 -4 -4 -2 -2 -4 -5
1 2 2 1 -0 -0 -2 -1 -1 -1 -1 -0 -0 1 1 -1 -0 2 4 -5 -5 -4 -3 -6 -6 -5 -5 -4 -3 -3 -3 -5 -7 -8 -7 -5 -4 -4 -3 -2 -2 -2 -3 -2 -2 -2 -1
-0 0 2 1 -0 -0 -1 -2 -1 -1 -2 -1 -0 -1 -1 1 2 -0 0 -4 -6 1 3 -5 -5 -3 -5 -4 -3 -3 -3 -4 -6 -5 -3 -2 -3 -2 -1 -2 -2 0 -1 -1 -1 -2 -2
-2 -2 0 2 0 -0 -1 -3 -2 -1 -2 -2 -1 -1 -2 -1 3 0 -4 -4 -5 5 2 -3 -5 -3 -3 -3 -3 -2 -2 -3 -2 -3 -4 -3 -3 -2 -1 -2 -2 -1 -0 -0 1 -0 2
-3 -3 -2 1 1 -0 -0 -2 -3 -2 -2 -2 -3 -2 -1 -0 3 -3 -4 -0 -1 4 -3 -3 -3 -3 -2 -2 -2 -2 -1 -0 -1 0 0 -2 -1 -2 -2 -1 -1 -2 -0 4 5 5 5
-3 -3 -3 -0 1 0 1 -1 -2 -4 -2 -2 -3 -2 -2 -3 -3 -3 -2 0 5 -1 -3 -5 -4 -3 -1 -2 -1 -1 -1 -0 -1 -1 -2 -0 3 -1 -2 0 1 -0 1 6 4 4 2
-2 -3 -3 -1 1 1 2 -1 -1 -3 -4 -2 -2 -2 1 -3 -4 -5 0 5 2 -3 -4 -3 -3 -2 -1 -1 -1 -0 0 -0 -1 -0 1 1 2 -1 -1 -1 -1 1 2 -0 5 5 6
-2 -3 -4 -2 0 1 2 -0 2 -2 -5 -3 1 0 2 -1 -5 -2 4 3 -0 -2 -4 -4 -2 -1 0 -1 -0 0 0 -0 -0 -2 -2 -1 3 -2 -1 -1 -1 1 -1 4 2 7 1
-2 -4 -5 -3 -1 1 1 0 3 0 -3 -2 2 -1 2 -3 -3 1 6 1 -1 -1 -1 -1 -1 -0 0 1 -0 1 1 0 -0 -1 -2 -3 -1 -0 -2 0 0 1 2 1 -1 2 3
-2 -4 -5 -4 -2 0 0 2 3 1 -1 -1 2 1 -2 -2 1 4 3 -0 -1 -1 0 0 -0 -0 1 1 2 2 2 2 1 -0 0 -0 1 0 -3 -1 -0 -0 0 -0 2 1 1
-2 -3 -5 -5 -4 -1 -0 3 0 4 1 5 1 3 0 1 8 8 2 1 0 0 -0 0 2 1 1 2 3 2 2 2 2 0 2 0 2 1 -2 1 0 0 -0 -1 0 2 3
-1 -2 -4 -6 -6 -3 -1 1 2 3 4 4 2 7 3 4 2 1 2 1 2 1 1 1 1 1 1 2 1 3 3 2 3 2 1 1 -0 -0 1 -3 -4 -3 -4 -4 -1 4 3
-1 -2 -3 -5 -7 -5 -3 -1 3 3 4 2 4 4 4 5 4 1 1 1 1 1 0 0 1 1 2 3 2 2 1 2 1 1 1 1 2 1 -0 -3 -4 -3 -2 -3 -3 -2 2
-1 -2 -3 -4 -6 -8 -5 -2 -1 2 0 4 2 3 3 4 2 2 2 1 0 0 -0 0 1 -0 -1 2 -3 -0 -2 -3 -2 1 0 1 4 3 2 -2 -3 -1 -3 -3 -3 -2 -2
-2 -2 -3 -4 -6 -8 -7 -5 -2 -0 0 4 1 3 3 3 3 3 3 1 -0 1 2 -1 -1 -2 2 -1 0 1 1 1 -0 1 2 3 4 4 6 3 3 7 2 -3 -3 -3 -1
-1 -2 -3 -3 -5 -7 -8 -7 -3 -2 -1 2 3 4 5 6 4 3 0 -0 0 -0 1 -0 -1 2 3 2 2 2 2 2 2 2 2 6 5 6 8 6 9 1 -3 -3 -2 -2 -3
-1 -2 -3 -4 -4 -6 -8 -7 -6 -1 -1 -1 -0 3 3 10 3 2 1 0 1 1 1 2 3 3 3 2 4 6 4 5 4 1 1 2 6 7 7 4 2 0 -1 -1 -0 0 -2
0 -1 -3 -3 -4 -6 -7 -7 -6 -3 -1 0 -0 -2 3 3 7 1 2 2 4 4 4 5 5 5 5 5 6 8 5 1 2 2 1 3 4 6 7 7 6 2 -1 -1 -1 3 2
2 0 -1 -3 -4 -5 -6 -7 -6 -4 0 1 1 -2 3 5 3 2 3 3 2 2 4 4 5 5 5 8 8 9 5 1 2 6 5 6 5 7 5 7 4 -1 -1 -1 4 5 3
3 2 -0 -1 -3 -4 -5 -6 -5 -4 -0 2 2 -0 2 3 4 3 3 4 3 2 7 5 5 5 7 7 8 8 8 4 3 -1 3 4 7 6 5 7 6 -1 -1 5 2 2 3
4 3 2 0 -1 -2 -3 -4 -5 -4 -1 1 5 1 -1 4 5 0 0 1 2 2 2 5 3 5 4 7 7 7 6 6 6 5 -2 2 2 3 4 3 -2 0 1 3 2 3 3
Wind_Speed
6 7 9 11 13 14 15 15 13 11 10 9 9 9 9 10 10 11 13 16 17 15 11 9 11 12 6 5 5 0 5 8 8 1 7 7 5 3 4 7 7 10 9 9 9 7 2
5 6 8 10 12 13 13 11 10 9 8 7 6 7 8 10 12 14 17 18 17 12 10 10 13 12 8 6 0 1 4 4 3 2 3 3 1 1 4 6 1 7 9 9 7 6 4
4 5 7 9 11 11 9 8 7 5 4 4 5 7 10 12 16 20 21 19 14 11 10 12 14 12 8 4 1 3 5 3 4 3 2 1 2 5 8 6 5 9 9 8 7 8 5
5 4 5 8 9 8 6 4 3 1 3 5 7 10 14 19 22 23 21 17 13 9 9 11 14 12 1 3 2 2 3 3 2 2 4 6 4 3 4 6 7 11 10 11 8 9 5
5 4 4 7 8 6 3 1 2 5 7 10 12 16 20 22 24 23 18 14 11 9 10 11 10 5 3 2 2 4 2 3 2 2 6 6 3 4 6 11 10 9 11 5 8 3 2
5 3 3 6 7 3 0 3 5 7 9 11 13 15 18 20 21 18 15 12 10 9 9 6 4 7 2 1 3 1 2 3 5 6 6 5 7 9 9 9 7 7 5 9 4 7 7
6 4 2 4 5 1 3 5 6 8 10 12 14 15 16 18 18 16 15 12 8 6 4 4 8 5 7 4 5 4 3 4 7 10 9 5 10 5 10 7 7 5 5 5 6 4 6
6 4 1 2 4 1 5 7 8 10 11 13 14 15 16 17 17 15 13 3 3 10 11 9 9 9 4 3 8 5 1 8 10 8 5 9 7 4 2 2 3 3 4 2 3 2 5
7 5 2 1 2 2 6 8 9 11 12 12 12 13 14 14 14 13 4 3 17 8 8 7 4 6 4 6 5 6 2 3 4 5 4 9 8 2 3 3 7 4 7 6 9 4 8
8 5 3 1 1 2 7 9 11 13 13 13 13 14 15 14 11 9 4 9 8 1 3 5 3 3 0 1 5 7 4 2 0 6 8 7 4 2 2 4 9 6 4 7 8 7 7
9 6 4 2 1 2 7 10 12 14 15 14 12 11 12 11 8 8 7 6 6 5 3 2 5 2 3 3 2 6 6 1 3 6 5 5 2 2 3 5 6 7 7 7 8 9 8
10 7 5 3 1 1 5 11 13 15 16 15 12 9 8 5 7 9 8 6 3 4 3 5 3 6 11 10 7 5 6 7 3 5 9 8 3 5 6 4 3 7 7 6 6 5 5
12 8 5 3 2 1 4 10 13 16 17 16 14 10 9 10 7 9 7 6 4 4 3 7 8 4 8 8 7 9 7 6 1 4 3 7 5 4 7 7 5 9 6 3 3 4 2
13 10 6 4 2 1 2 9 12 16 19 17 15 12 9 8 8 9 6 6 5 3 5 5 8 8 4 6 4 4 4 9 10 6 3 3 7 6 6 6 6 5 7 3 4 2 4
14 11 7 5 3 1 2 9 11 14 19 18 16 12 7 8 8 8 9 6 3 6 7 11 12 8 7 5 2 4 10 8 8 10 4 3 4 5 5 6 6 3 4 3 2 1 3
14 12 8 6 4 2 3 9 11 13 17 19 12 11 8 10 8 8 5 2 2 2 2 13 6 4 6 7 5 3 2 4 3 8 5 3 2 2 3 4 4 8 3 3 1 3 4
15 12 9 7 5 4 4 8 12 13 18 20 12 10 8 10 9 9 5 2 5 6 2 3 3 4 6 5 3 3 3 5 3 4 5 7 3 5 3 2 7 2 1 3 4 4 4
16 13 10 8 6 5 5 7 12 15 18 17 10 5 11 13 9 6 5 6 4 8 4 3 2 4 5 4 3 3 4 5 3 5 4 6 2 2 4 3 3 4 4 4 2 2 3
17 14 11 8 7 6 6 7 13 16 18 10 5 6 11 14 4 3 5 6 3 7 3 4 3 1 3 5 3 6 5 5 4 5 7 6 1 3 5 6 4 4 1 2 1 2 9
18 15 12 9 8 6 6 7 12 15 16 8 6 3 6 9 4 9 9 9 7 3 4 4 7 7 8 6 4 7 7 4 2 4 4 2 1 3 5 9 8 8 9 9 10 7 10
19 16 13 9 8 7 6 6 9 12 13 9 2 2 5 7 7 10 10 10 11 6 3 7 5 4 7 4 6 4 6 6 3 2 1 3 2 5 10 12 11 12 13 13 15 14 13
20 16 13 11 8 7 6 5 7 9 11 5 5 4 3 3 8 10 5 10 13 5 9 7 7 8 5 6 2 6 4 3 2 4 1 2 1 4 4 7 10 14 16 18 16 10 13
19 17 13 11 9 8 7 6 6 6 8 3 4 9 7 4 9 8 7 9 10 11 2 5 12 8 9 9 10 9 8 5 4 2 2 2 1 4 4 11 13 6 3 1 4 7 7
20 17 15 12 10 8 7 6 6 6 6 5 7 6 5 4 8 8 8 10 11 7 8 11 9 9 6 10 11 10 10 6 3 3 1 4 1 2 3 7 3 5 9 13 10 9 9
21 19 16 13 11 9 8 7 6 7 7 6 10 5 4 3 7 6 11 14 11 12 15 12 6 8 11 3 2 2 1 3 1 4 3 1 3 2 2 5 14 10 5 6 8 13 10
22 20 17 15 12 11 9 8 7 7 7 7 8 6 3 13 5 11 12 16 11 8 7 5 7 7 4 3 2 2 2 0 5 6 5 4 2 3 3 3 4 2 7 5 7 9 7
21 20 18 15 13 12 10 9 8 8 8 8 7 7 4 6 6 11 9 12 8 11 6 8 8 4 3 2 1 3 3 2 3 3 4 2 2 5 6 5 8 8 3 5 4 3 8
19 19 18 16 14 12 11 10 9 9 9 9 8 8 6 4 7 7 7 9 8 11 5 11 7 3 3 2 3 3 1 4 3 2 4 6 5 4 3 3 6 4 4 3 10 15 7
18 17 18 16 14 13 12 10 10 10 10 9 4 7 7 6 6 11 11 12 10 7 7 14 1 7 9 3 3 3 2 0 1 3 4 4 6 3 8 6 12 9 12 14 7 5 9
Wind_Direction
257 280 295 305 314 309 302 299 294 289 278 265 249 233 219 207 194 184 176 168 161 154 156 161 158 165 167 225 84 7 40 21 42 137 215 202 199 187 128 138 151 124 134 123 140 142 150
251 276 300 311 316 311 306 302 297 287 275 258 237 214 193 181 170 164 159 155 150 152 154 150 149 164 201 221 116 285 322 4 64 177 188 228 241 313 104 81 222 131 143 140 154 148 157
242 276 305 317 320 316 312 309 302 287 269 222 195 179 165 158 151 151 149 148 148 146 143 146 159 170 236 98 233 266 290 331 9 12 121 169 148 207 141 130 141 161 165 154 181 177 168
231 274 308 322 330 320 323 318 299 173 143 145 148 146 144 143 145 147 148 148 146 134 132 155 161 173 340 203 243 296 276 259 338 27 98 90 141 128 287 114 177 202 232 202 142 179 180
220 262 307 329 333 332 338 19 114 115 121 124 129 136 142 146 149 150 148 144 131 119 127 142 154 212 143 302 260 301 277 208 191 136 119 116 150 164 179 202 196 212 229 213 151 206 256
212 245 305 334 335 350 85 132 122 125 128 127 133 141 146 150 152 149 145 137 121 115 124 135 167 235 180 322 268 243 208 162 172 160 169 216 215 209 213 224 266 152 225 205 204 120 241
204 227 303 336 338 360 154 147 142 138 134 133 133 137 146 150 148 146 143 125 124 122 190 0 131 78 104 78 110 114 185 183 183 214 219 222 254 26 34 351 342 12 290 284 79 71 284
203 216 257 329 342 183 166 158 151 148 144 138 136 140 147 149 150 157 158 248 45 117 109 99 99 87 80 149 130 113 179 215 207 209 200 219 77 74 40 1 322 286 288 104 111 80 297
202 211 199 303 342 180 178 168 161 159 153 144 138 141 146 153 160 167 163 153 137 144 122 102 92 69 66 90 55 48 354 208 217 209 226 36 89 124 294 37 328 66 344 19 327 315 256
198 205 192 248 324 179 188 182 173 168 162 156 143 138 145 150 153 164 166 163 161 121 170 126 155 60 210 138 70 33 27 6 336 101 87 75 85 345 324 60 343 291 28 304 278 263 247
194 196 194 210 290 189 196 193 185 175 172 168 159 142 140 151 147 171 192 182 201 301 183 155 87 40 92 38 110 51 28 211 138 144 250 98 104 3 29 9 332 36 318 285 273 255 279
193 193 189 191 236 211 197 196 191 184 181 177 170 158 145 147 155 173 147 143 172 251 143 147 145 138 89 80 65 85 85 82 34 102 70 102 104 30 9 309 287 290 251 234 240 234 240
194 193 186 178 219 292 197 190 192 191 188 184 180 175 165 160 170 167 146 146 204 265 150 154 144 153 98 104 77 89 97 67 52 190 166 150 78 110 0 284 202 320 269 251 202 191 245
195 192 182 176 188 5 187 180 187 191 189 186 183 183 184 183 168 172 167 211 219 55 182 105 148 155 122 119 89 133 120 88 47 320 163 226 160 8 4 20 335 10 333 6 299 338 321
198 192 179 176 175 101 161 168 180 182 184 183 180 180 173 178 177 169 211 208 132 190 155 159 166 167 138 129 155 121 72 61 34 19 17 308 101 122 45 15 326 30 42 358 165 127 245
198 194 178 174 171 128 135 163 167 169 173 175 169 170 188 183 172 168 228 287 147 51 164 173 170 279 154 136 162 165 110 40 77 23 333 47 192 57 73 280 72 356 40 264 44 310 293
197 197 178 171 173 140 126 162 163 160 162 166 166 184 193 179 159 198 197 151 142 140 200 269 154 159 129 141 144 121 87 109 28 57 9 0 311 103 256 8 360 153 167 342 313 330 297
195 200 182 172 174 151 120 150 162 156 153 149 173 190 173 163 183 204 196 154 130 145 151 113 76 110 157 144 129 103 130 51 59 358 32 37 7 284 24 67 336 330 351 331 302 309 238
193 199 189 177 178 158 125 133 167 165 161 163 188 111 164 172 161 193 158 130 131 167 148 162 131 161 177 143 122 124 117 92 57 10 22 13 74 292 187 162 174 282 39 314 5 290 252
194 196 193 183 178 171 143 123 164 178 177 169 170 119 151 204 286 192 181 171 140 101 108 103 120 144 137 146 121 152 126 134 89 46 42 305 345 305 306 320 321 292 273 267 253 255 271
197 195 197 187 183 182 165 137 142 175 185 177 201 147 155 181 220 202 184 182 165 150 136 166 160 185 156 147 135 144 139 138 141 125 131 342 269 332 302 303 306 297 285 272 263 260 257
198 198 196 195 188 184 185 167 144 150 172 188 186 158 155 146 172 178 154 199 182 137 161 166 184 155 163 151 214 169 158 202 144 166 132 41 96 333 281 300 317 304 287 274 263 275 282
196 201 200 200 194 190 192 184 171 160 164 163 167 154 159 168 178 174 192 170 175 147 52 191 148 144 96 77 75 66 68 74 95 166 149 352 345 353 280 338 321 282 267 322 283 277 256
193 197 200 203 204 196 196 194 183 180 186 173 175 151 131 157 186 190 184 171 160 175 143 127 144 116 109 113 97 74 74 72 120 76 348 136 97 56 299 312 309 40 299 295 276 286 280
194 195 200 204 206 207 200 197 191 181 177 176 171 143 141 118 174 161 164 149 130 132 140 122 77 113 139 114 105 60 109 60 95 49 89 224 134 136 269 295 289 298 53 6 336 301 322
192 194 198 203 205 207 208 199 193 185 177 167 167 162 131 125 217 166 157 165 151 138 135 112 108 130 131 89 104 168 203 292 145 139 62 72 105 242 166 271 271 45 26 339 299 266 52
188 192 193 197 203 205 209 208 194 188 181 175 167 153 121 107 146 165 163 182 176 180 141 147 152 142 169 96 122 187 204 334 205 190 195 130 191 227 227 246 267 302 0 299 258 0 333
189 191 192 195 199 202 204 206 200 190 186 180 172 166 143 114 149 158 147 160 167 185 160 139 141 152 131 118 166 204 190 202 215 259 179 190 187 202 210 253 272 168 219 262 330 316 332
193 194 194 194 198 201 204 206 204 196 189 188 179 174 164 160 161 179 179 174 177 189 174 171 193 154 177 138 170 157 184 87 234 238 177 251 208 240 192 248 298 249 259 274 272 322 316
Height
1511 1511 1511 1509 1507 1505 1502 1499 1497 1495 1494 1493 1493 1493 1494 1495 1497 1499 1501 1503 1506 1508 1510 1512 1512 1513 1515 1514 1513 1514 1513 1512 1510 1510 1509 1507 1505 1502 1499 1500 1502 1508 1511 1515 1517 1518 1516
1510 1510 1509 1508 1506 1503 1500 1498 1495 1493 1492 1491 1491 1492 1492 1494 1496 1499 1502 1505 1507 1510 1511 1512 1513 1515 1515 1512 1516 1515 1514 1514 1513 1510 1509 1507 1506 1505 1503 1502 1505 1511 1513 1515 1516 1517 1519
1508 1509 1508 1507 1504 1501 1499 1496 1494 1492 1491 1490 1490 1491 1492 1494 1496 1500 1503 1506 1509 1510 1512 1512 1514 1516 1516 1514 1516 1516 1515 1514 1512 1512 1509 1510 1509 1508 1507 1511 1515 1515 1514 1514 1514 1515 1517
1508 1508 1507 1506 1503 1501 1498 1496 1495 1493 1491 1491 1491 1491 1493 1495 1498 1502 1505 1508 1510 1511 1512 1513 1515 1516 1514 1515 1516 1516 1515 1514 1513 1512 1512 1511 1511 1511 1509 1514 1515 1512 1508 1510 1512 1515 1517
1507 1507 1506 1505 1503 1501 1498 1497 1496 1494 1493 1493 1493 1494 1496 1498 1501 1504 1507 1510 1511 1512 1513 1515 1517 1516 1513 1515 1515 1514 1514 1514 1514 1514 1513 1512 1513 1512 1515 1510 1510 1507 1505 1508 1514 1515 1515
1505 1506 1506 1504 1503 1501 1499 1498 1497 1496 1496 1495 1496 1497 1499 1501 1503 1506 1509 1511 1513 1514 1516 1516 1517 1518 1515 1515 1515 1514 1514 1515 1515 1515 1516 1514 1510 1506 1502 1502 1509 1501 1506 1507 1507 1514 1513
1504 1506 1505 1503 1502 1501 1500 1500 1499 1499 1498 1498 1499 1500 1502 1504 1506 1508 1511 1513 1517 1518 1517 1514 1513 1514 1514 1516 1515 1516 1515 1516 1516 1515 1509 1511 1504 1507 1513 1515 1513 1509 1511 1509 1507 1517 1516
1504 1505 1504 1504 1502 1501 1500 1500 1501 1501 1501 1501 1502 1503 1504 1506 1508 1510 1511 1513 1512 1515 1518 1518 1517 1517 1517 1517 1516 1517 1517 1516 1514 1507 1511 1511 1515 1520 1521 1519 1517 1515 1513 1511 1513 1517 1516
1503 1504 1503 1503 1502 1501 1500 1501 1501 1502 1503 1504 1504 1505 1506 1508 1510 1512 1514 1514 1514 1515 1515 1520 1519 1518 1519 1519 1519 1519 1517 1514 1510 1510 1508 1510 1521 1524 1521 1517 1516 1515 1515 1519 1521 1514 1513
1502 1503 1503 1503 1502 1500 1500 1501 1502 1503 1504 1505 1506 1507 1508 1510 1515 1513 1516 1515 1515 1515 1510 1520 1517 1520 1520 1519 1519 1519 1518 1518 1514 1512 1512 1519 1524 1522 1519 1519 1520 1518 1523 1525 1522 1520 1513
1502 1502 1502 1502 1501 1500 1500 1501 1502 1503 1505 1507 1508 1509 1510 1512 1513 1516 1516 1516 1516 1516 1523 1521 1519 1521 1519 1519 1520 1521 1520 1518 1515 1518 1520 1525 1523 1522 1522 1527 1526 1524 1526 1524 1520 1516 1510
1501 1502 1502 1502 1501 1500 1499 1500 1502 1503 1505 1507 1509 1510 1512 1513 1514 1515 1516 1517 1519 1518 1531 1519 1518 1519 1519 1520 1520 1522 1522 1522 1522 1518 1517 1524 1527 1527 1527 1528 1528 1526 1523 1520 1516 1509 1523
1499 1501 1501 1501 1501 1500 1499 1499 1501 1503 1505 1508 1510 1511 1513 1513 1515 1515 1517 1519 1519 1524 1517 1520 1518 1517 1518 1522 1525 1521 1522 1523 1519 1525 1524 1522 1527 1528 1530 1522 1523 1519 1516 1523 1529 1526 1526
1498 1499 1500 1500 1501 1500 1498 1499 1500 1502 1505 1508 1510 1512 1513 1514 1515 1516 1518 1518 1525 1514 1511 1513 1517 1519 1522 1522 1526 1525 1521 1524 1527 1520 1519 1522 1535 1529 1532 1531 1531 1526 1523 1534 1543 1534 1523
1497 1499 1498 1499 1500 1499 1498 1498 1499 1501 1504 1508 1511 1513 1514 1515 1516 1517 1519 1520 1516 1513 1512 1516 1518 1519 1524 1524 1523 1525 1530 1531 1535 1532 1527 1528 1531 1534 1535 1532 1532 1526 1532 1532 1540 1551 1546
1496 1498 1498 1499 1499 1499 1498 1498 1499 1501 1503 1507 1512 1514 1515 1515 1516 1518 1516 1520 1515 1517 1515 1515 1517 1518 1520 1522 1523 1524 1529 1537 1537 1538 1535 1535 1534 1534 1534 1535 1533 1531 1534 1536 1534 1557 1550
1494 1497 1497 1498 1499 1499 1498 1498 1500 1501 1504 1508 1512 1512 1514 1515 1517 1517 1516 1516 1518 1522 1520 1517 1518 1521 1519 1525 1522 1527 1533 1540 1540 1538 1538 1537 1536 1537 1536 1533 1531 1531 1533 1539 1537 1543 1549
1492 1495 1496 1497 1499 1499 1499 1499 1500 1502 1505 1509 1511 1507 1512 1515 1517 1514 1515 1516 1520 1521 1523 1522 1521 1520 1522 1525 1528 1530 1533 1536 1543 1542 1539 1544 1541 1544 1535 1539 1540 1537 1536 1538 1551 1551 1549
1491 1494 1495 1497 1498 1499 1499 1499 1500 1503 1505 1509 1507 1510 1513 1515 1517 1518 1519 1521 1520 1521 1522 1522 1525 1525 1526 1527 1535 1533 1537 1545 1545 1543 1544 1544 1543 1544 1534 1540 1540 1539 1538 1542 1548 1556 1554
1490 1493 1495 1496 1497 1499 1499 1499 1500 1503 1505 1507 1507 1511 1515 1516 1513 1511 1514 1516 1521 1524 1526 1525 1527 1527 1528 1531 1530 1535 1539 1545 1548 1547 1550 1550 1543 1547 1549 1542 1539 1542 1539 1538 1541 1552 1547
1488 1491 1494 1495 1497 1499 1499 1500 1501 1502 1504 1507 1506 1507 1509 1512 1513 1511 1513 1514 1517 1522 1525 1526 1527 1526 1529 1535 1533 1536 1537 1545 1549 1551 1550 1549 1551 1548 1545 1542 1540 1540 1539 1536 1535 1535 1542
1486 1490 1493 1495 1496 1498 1500 1501 1501 1502 1504 1506 1506 1508 1510 1511 1511 1512 1516 1514 1515 1520 1522 1524 1525 1526 1528 1535 1533 1537 1537 1541 1542 1549 1549 1551 1553 1557 1552 1541 1540 1541 1535 1530 1530 1531 1530
1484 1488 1491 1494 1496 1498 1500 1501 1502 1502 1504 1506 1505 1506 1509 1514 1512 1513 1514 1514 1516 1522 1527 1523 1526 1528 1534 1536 1539 1541 1543 1545 1546 1547 1550 1553 1555 1557 1557 1550 1551 1549 1534 1528 1528 1530 1533
1483 1487 1491 1494 1497 1498 1499 1501 1502 1502 1503 1504 1505 1508 1509 1514 1513 1511 1514 1516 1518 1521 1524 1527 1530 1534 1542 1543 1544 1546 1548 1549 1550 1552 1553 1559 1559 1567 1567 1563 1557 1533 1529 1529 1530 1531 1528
1481 1485 1489 1492 1495 1498 1499 1500 1502 1502 1503 1504 1505 1508 1508 1515 1511 1514 1515 1516 1523 1525 1528 1532 1537 1539 1541 1543 1545 1552 1553 1561 1558 1556 1555 1555 1560 1569 1570 1558 1545 1532 1533 1533 1534 1534 1529
1480 1484 1488 1491 1494 1497 1499 1500 1502 1502 1504 1505 1506 1506 1508 1510 1516 1513 1516 1520 1523 1527 1533 1537 1539 1541 1543 1546 1550 1558 1548 1543 1546 1554 1560 1560 1562 1562 1568 1569 1557 1533 1532 1538 1536 1535 1536
1478 1483 1487 1490 1493 1496 1497 1499 1501 1502 1504 1505 1506 1507 1509 1510 1514 1516 1518 1519 1521 1525 1528 1535 1539 1542 1543 1549 1552 1554 1544 1544 1544 1557 1565 1566 1568 1565 1564 1565 1549 1534 1538 1539 1542 1540 1540
1476 1481 1484 1488 1491 1494 1497 1499 1501 1502 1504 1505 1506 1507 1509 1510 1514 1515 1517 1520 1523 1524 1530 1534 1538 1541 1544 1552 1554 1550 1555 1546 1546 1539 1548 1553 1559 1565 1562 1562 1554 1537 1539 1545 1537 1538 1540
1476 1480 1483 1486 1489 1492 1495 1497 1500 1502 1503 1505 1508 1508 1509 1511 1514 1514 1516 1518 1521 1523 1526 1531 1531 1532 1535 1540 1548 1550 1555 1555 1549 1546 1536 1543 1541 1543 1545 1537 1532 1535 1535 1536 1536 1540 1541